Weather History for Capo Bellavista, Italy

Change the Weather History Date:

Friday, March 29, 2013

  Actual Average (LIED) Record (LIED)
Temperature  
Mean Temperature 65 °F -  
Max Temperature 74 °F 63 °F 73 °F (2012)
Min Temperature 56 °F 52 °F 39 °F (1999)
Growing Degree Days 15 (Base 50)    
Moisture  
Dew Point 53 °F    
Average Humidity 69    
Maximum Humidity 100    
Minimum Humidity 51    
Precipitation  
Precipitation 0.00 in 0.04 in - ()
Sea Level Pressure  
Sea Level Pressure 29.79 in    
Wind  
Wind Speed 7 mph ()    
Max Wind Speed 14 mph    
Max Gust Speed -    
Visibility 7.4 miles    
Events      
Averages and records for this station are not official NWS values.
T = Trace of Precipitation, MM = Missing Value Source: Averaged Metar Reports

Daily Weather History Graph

Daily Weather History Graph

Search for Another Location

Airport:

Trip Planner

Search our weather history database for the weather conditions in past years. The results will help you decide how hot, cold, wet, or windy it might be!

Date:

Astronomy

Mar. 29, 2013 Rise Set
Actual Time 6:10 AM CET 6:42 PM CET
Civil Twilight 5:42 AM CET 7:09 PM CET
Nautical Twilight 5:10 AM CET 7:41 PM CET
Astronomical Twilight 4:38 AM CET 8:14 PM CET
Moon 9:23 PM CET (3/29) 7:07 AM CET (3/29)
Length of Visible Light 13h 26m
Length of Day
12h 32m
Waning Gibbous, 95% of the Moon is Illuminated
Mar 29
Waning Gibbous
Apr 3
Last Quarter
Apr 10
New
Apr 18
First Quarter
Apr 25
Full

Hourly Weather History & Observations

Time (CET) Temp. Dew Point Humidity Pressure Visibility Wind Dir Wind Speed Gust Speed Precip Events Conditions
12:55 AM 60.8 °F 50.0 °F 68% 29.80 in - West 11.5 mph - N/A   Clear
1:00 AM 60 °F 50 °F 62% 29.82 in 12 mi West 11.5 mph - -   Scattered Clouds
1:55 AM 59.0 °F 50.0 °F 72% 29.80 in - SW 9.2 mph - N/A   Clear
2:55 AM 59.0 °F 53.6 °F 82% 29.80 in - SW 10.4 mph - N/A   Clear
3:55 AM 59.0 °F 51.8 °F 77% 29.80 in - SW 10.4 mph - N/A   Clear
4:55 AM 57.2 °F 50.0 °F 77% 29.80 in - North 5.8 mph - N/A   Clear
5:55 AM 55.4 °F 55.4 °F 100% 29.80 in - NNW 5.8 mph - N/A   Clear
6:55 AM 57.2 °F 53.6 °F 88% 29.80 in 6.2 mi NNW 4.6 mph - N/A   Partly Cloudy
7:00 AM 57 °F 54 °F 86% 29.82 in 12 mi NNW 4.6 mph - -   Scattered Clouds
7:55 AM 60.8 °F 55.4 °F 82% 29.80 in - South 2.3 mph - N/A   Clear
8:55 AM 60.8 °F 55.4 °F 82% 29.80 in - East 3.5 mph - N/A   Clear
9:55 AM 69.8 °F 59.0 °F 68% 29.83 in - ESE 3.5 mph - N/A   Clear
10:55 AM 68.0 °F 57.2 °F 68% 29.83 in 6.2 mi East 6.9 mph - N/A   Partly Cloudy
11:55 AM 73.4 °F 60.8 °F 65% 29.83 in 6.2 mi SSE 4.6 mph - N/A   Partly Cloudy
12:55 PM 68.0 °F 55.4 °F 64% 29.83 in 6.2 mi NW 3.5 mph - N/A   Scattered Clouds
1:00 PM 68 °F 55 °F 53% 29.82 in 12 mi NW 3.5 mph - -   Partly Cloudy
1:55 PM 69.8 °F 51.8 °F 53% 29.83 in 6.2 mi West 5.8 mph - N/A   Scattered Clouds
2:55 PM 69.8 °F 51.8 °F 53% 29.80 in 6.2 mi NW 4.6 mph - N/A   Scattered Clouds
3:55 PM 69.8 °F 53.6 °F 56% 29.77 in 6.2 mi North 3.5 mph - N/A   Scattered Clouds
4:55 PM 68.0 °F 59.0 °F 73% 29.77 in 6.2 mi WNW 9.2 mph - N/A   Scattered Clouds
5:55 PM 66.2 °F 53.6 °F 64% 29.77 in 6.2 mi SSW 5.8 mph - N/A   Scattered Clouds
6:55 PM 66.2 °F 51.8 °F 60% 29.74 in 6.2 mi WNW 8.1 mph - N/A   Scattered Clouds
7:00 PM 66 °F 52 °F 51% 29.76 in 12 mi WNW 8.1 mph - -   Partly Cloudy
7:55 PM 66.2 °F 51.8 °F 60% 29.74 in 6.2 mi WSW 11.5 mph - N/A   Scattered Clouds
8:55 PM 62.6 °F 50.0 °F 63% 29.77 in 6.2 mi North 5.8 mph - N/A   Scattered Clouds
9:55 PM 62.6 °F 51.8 °F 68% 29.77 in 6.2 mi West 12.7 mph - N/A   Scattered Clouds
10:55 PM 60.8 °F 48.2 °F 63% 29.74 in 6.2 mi West 13.8 mph - N/A   Scattered Clouds
11:55 PM 60.8 °F 48.2 °F 63% 29.74 in 6.2 mi West 6.9 mph - N/A   Scattered Clouds